Location: Kott?ru
(16.6209°N, 80.6208°E)
Time: 21:06:51
(UTC+00:00)

Cosmos 1869 Rocket - Pass Details

Date: 18 September 2020
Orbit: 604 x 634 km, 82.5° (Epoch: 27 October)

Event Time Altitude Azimuth Distance (km) Brightness Sun altitude
Rises 23:02:34 0° 355° (N) 2,853 7.0 -20.8°
Reaches altitude 10° 23:04:47 10° 355° (N) 1,947 6.1 -20.3°
Maximum altitude 23:09:05 89° 266° (W) 607 3.4 -19.2°
Drops below altitude 10° 23:13:23 10° 176° (S) 1,942 6.1 -18.2°
Sets 23:15:35 0° 176° (S) 2,845 6.9 -17.7°
